Location: Bednik
(45.3500°N, 16.3833°E)
Time: 15:58:51
(UTC+00:00)

Cosmos 2237 Rocket - Pass Details

Date: 08 August 2020
Orbit: 836 x 848 km, 71.0° (Epoch: 24 September)

Event Time Altitude Azimuth Distance (km) Brightness Sun altitude
Rises 22:36:53 0° 340° (NNW) 3,411 6.5 -28.6°
Reaches altitude 10° 22:39:46 10° 353° (N) 2,470 5.6 -28.7°
Maximum altitude 22:44:28 26° 50° (NE) 1,597 3.9 -28.8°
Enters shadow 22:46:49 20° 86° (E) 1,851 3.9 -28.8°
